This is the latest recevied weather packets stored in our database for station/object KG5TTF. If no packets are shown the sender has not sent any weather packets the latest 10 day(s).
| Time | Temp. | Humidity | Pressure | Rain* | Wind** | Luminosity | Snow |
|---|---|---|---|---|---|---|---|
| 1777552236 | 0.56° C | 98% | 1023.8 hPa | 1.78 mm | - | 8 W/m² | - |
| 1777551933 | 1.11° C | 98% | 1023.9 hPa | 1.78 mm | - | 6 W/m² | - |
| 1777551631 | 1.11° C | 98% | 1023.8 hPa | 0 mm | - | 5 W/m² | - |
| 1777551328 | 1.11° C | 98% | 1023.9 hPa | 0 mm | - | 4 W/m² | - |
| 1777551024 | 0.56° C | 98% | 1023.7 hPa | 1.27 mm | - | 3 W/m² | - |
| 1777550721 | 0.56° C | 97% | 1023.9 hPa | 1.27 mm | - | 2 W/m² | - |
| 1777550417 | 0.56° C | 97% | 1023.8 hPa | 0 mm | - | 1 W/m² | - |
| 1777550114 | 0.56° C | 97% | 1023.8 hPa | 1.78 mm | - | 1 W/m² | - |
| 1777549810 | 0.56° C | 97% | 1023.8 hPa | 1.78 mm | - | 0 W/m² | - |
| 1777549506 | 0.56° C | 97% | 1023.7 hPa | 1.78 mm | - | 0 W/m² | - |
| 1777549202 | 0.56° C | 97% | 1023.8 hPa | 1.78 mm | - | 0 W/m² | - |
| 1777548899 | 0.56° C | 97% | 1024.1 hPa | 0 mm | - | 0 W/m² | - |
| 1777548596 | 0.56° C | 97% | 1023.9 hPa | 1.27 mm | - | 0 W/m² | - |
| 1777548292 | 0.56° C | 97% | 1023.9 hPa | 1.27 mm | - | 0 W/m² | - |
| 1777547990 | 0.56° C | 97% | 1023.8 hPa | 1.78 mm | - | 0 W/m² | - |
| 1777547685 | 0.56° C | 97% | 1023.7 hPa | 1.78 mm | - | 0 W/m² | - |
| 1777547382 | 0.56° C | 97% | 1023.8 hPa | 1.27 mm | - | 0 W/m² | - |
| 1777547080 | 0.56° C | 97% | 1023.8 hPa | 1.27 mm | - | 0 W/m² | - |
| 1777546777 | 0.56° C | 96% | 1024.1 hPa | 0 mm | - | 0 W/m² | - |
| 1777546474 | 0.56° C | 96% | 1023.8 hPa | 0 mm | - | 0 W/m² | - |
| 1777546171 | 1.11° C | 96% | 1024.1 hPa | 1.78 mm | - | 0 W/m² | - |
| 1777545867 | 1.11° C | 96% | 1023.8 hPa | 1.78 mm | - | 0 W/m² | - |
| 1777545564 | 1.11° C | 96% | 1023.8 hPa | 1.27 mm | - | 0 W/m² | - |
| 1777545260 | 1.67° C | 96% | 1023.9 hPa | 1.27 mm | - | 0 W/m² | - |
| 1777544958 | 1.67° C | 96% | 1024.1 hPa | 1.78 mm | - | 0 W/m² | - |
* Rain latest hour (hover to see other rain measurements)
** Current wind speed in m/s (hover to see current wind gust speed)